| time (UTC) | temp F | wind direction | speed MPH | gust MPH | rain 1hr in | rain 24hr in | rain mn in | humidity % | barometer mb |
| 20260505094810 | 53 | 255 | 0.0 | 0.0 | 0.00 | 0.00 | 0.00 | 81 | 1010.3 |
| 20260505094310 | 53 | 255 | 0.0 | 0.0 | 0.00 | 0.00 | 0.00 | 81 | 1010.4 |
| 20260505093810 | 53 | 255 | 0.0 | 0.0 | 0.00 | 0.00 | 0.00 | 81 | 1010.4 |
| 20260505093312 | 53 | 255 | 0.0 | 0.0 | 0.00 | 0.00 | 0.00 | 80 | 1010.4 |
| 20260505092804 | 53 | 255 | 0.0 | 0.0 | 0.00 | 0.00 | 0.00 | 81 | 1010.3 |
| 20260505092256 | 53 | 255 | 0.0 | 0.0 | 0.00 | 0.00 | 0.00 | 80 | 1010.1 |
| 20260505091750 | 53 | 255 | 0.0 | 0.0 | 0.00 | 0.00 | 0.00 | 80 | 1010.1 |
| 20260505091243 | 53 | 255 | 0.0 | 0.0 | 0.00 | 0.00 | 0.00 | 80 | 1010.1 |
| 20260505090738 | 53 | 255 | 0.0 | 0.0 | 0.00 | 0.00 | 0.00 | 80 | 1010.1 |
| 20260505090233 | 54 | 255 | 0.0 | 0.0 | 0.00 | 0.00 | 0.00 | 80 | 1010.0 |
| 20260505085726 | 54 | 255 | 0.0 | 0.0 | 0.00 | 0.00 | 0.00 | 80 | 1010.0 |
| 20260505085220 | 54 | 255 | 0.0 | 0.0 | 0.00 | 0.00 | 0.00 | 80 | 1010.0 |
| 20260505084715 | 53 | 255 | 0.0 | 0.0 | 0.00 | 0.00 | 0.00 | 80 | 1010.1 |
| 20260505084207 | 53 | 255 | 0.0 | 0.0 | 0.00 | 0.00 | 0.00 | 81 | 1010.0 |
| 20260505083702 | 53 | 255 | 0.0 | 0.0 | 0.00 | 0.00 | 0.00 | 81 | 1009.9 |
| 20260505083655 | 53 | 255 | 0.0 | 0.0 | 0.00 | 0.00 | 0.00 | 82 | 1010.1 |
| 20260505083257 | 53 | 255 | 0.0 | 0.0 | 0.00 | 0.00 | 0.00 | 81 | 1010.0 |
| 20260505082143 | 53 | 255 | 0.0 | 0.0 | 0.00 | 0.00 | 0.00 | 82 | 1010.1 |
| 20260505081638 | 53 | 255 | 0.0 | 0.0 | 0.00 | 0.00 | 0.00 | 82 | 1010.1 |
| 20260505081131 | 53 | 255 | 0.0 | 0.0 | 0.00 | 0.00 | 0.00 | 82 | 1010.0 |
| 20260505080626 | 52 | 255 | 0.0 | 0.0 | 0.00 | 0.00 | 0.00 | 82 | 1009.9 |
| 20260505080119 | 52 | 255 | 0.0 | 0.0 | 0.00 | 0.00 | 0.00 | 82 | 1010.3 |
| 20260505075614 | 52 | 255 | 0.0 | 0.0 | 0.00 | 0.00 | 0.00 | 82 | 1010.1 |
| 20260505075109 | 52 | 255 | 0.0 | 0.0 | 0.00 | 0.00 | 0.00 | 81 | 1010.3 |
| 20260505074600 | 52 | 255 | 0.0 | 0.0 | 0.00 | 0.00 | 0.00 | 81 | 1010.0 |
| 20260505074326 | 52 | 255 | 0.0 | 0.0 | 0.00 | 0.00 | 0.00 | 81 | 1009.9 |
| 20260505073547 | 52 | 255 | 0.0 | 0.0 | 0.00 | 0.00 | 0.00 | 80 | 1009.9 |
| 20260505073042 | 52 | 255 | 0.0 | 0.0 | 0.00 | 0.00 | 0.00 | 79 | 1010.0 |
| 20260505072807 | 52 | 255 | 0.0 | 0.0 | 0.00 | 0.00 | 0.00 | 79 | 1009.9 |
| 20260505072029 | 52 | 255 | 0.0 | 0.0 | 0.00 | 0.00 | 0.00 | 79 | 1009.8 |
| 20260505071524 | 52 | 255 | 0.0 | 0.0 | 0.00 | 0.00 | 0.00 | 78 | 1009.9 |
| 20260505071018 | 52 | 255 | 0.0 | 0.0 | 0.00 | 0.00 | 0.00 | 78 | 1009.8 |
| 20260505070511 | 52 | 255 | 0.0 | 0.0 | 0.00 | 0.00 | 0.00 | 78 | 1009.9 |
| 20260505070006 | 53 | 255 | 0.0 | 0.0 | 0.00 | 0.00 | 0.00 | 78 | 1009.8 |
| 20260505065459 | 53 | 255 | 0.0 | 0.0 | 0.00 | 0.00 | 0.00 | 77 | 1009.7 |
| 20260505064954 | 53 | 255 | 0.0 | 0.0 | 0.00 | 0.00 | 0.00 | 77 | 1009.5 |
| 20260505064448 | 53 | 225 | 0.0 | 0.0 | 0.00 | 0.00 | 0.00 | 77 | 1009.6 |
| 20260505063943 | 53 | 225 | 0.0 | 0.0 | 0.00 | 0.00 | 0.00 | 77 | 1009.5 |
| 20260505063937 | 53 | 225 | 0.0 | 0.0 | 0.00 | 0.00 | 0.00 | 76 | 1009.6 |
| 20260505062930 | 53 | 225 | 0.0 | 0.0 | 0.00 | 0.00 | 0.00 | 76 | 1009.6 |
| 20260505062423 | 54 | 225 | 0.0 | 0.0 | 0.00 | 0.00 | 0.00 | 75 | 1009.6 |
| 20260505061918 | 54 | 225 | 0.0 | 0.0 | 0.00 | 0.00 | 0.00 | 75 | 1009.7 |
| 20260505061412 | 54 | 225 | 0.0 | 1.0 | 0.00 | 0.00 | 0.00 | 75 | 1009.7 |
| 20260505060906 | 54 | 193 | 0.0 | 1.0 | 0.00 | 0.00 | 0.00 | 75 | 1009.6 |
| 20260505060400 | 55 | 136 | 0.0 | 0.0 | 0.00 | 0.00 | 0.00 | 74 | 1009.5 |
| 20260505055854 | 55 | 136 | 0.0 | 0.0 | 0.00 | 0.00 | 0.00 | 74 | 1009.7 |
| 20260505055348 | 55 | 136 | 0.0 | 0.0 | 0.00 | 0.00 | 0.00 | 73 | 1009.8 |
| 20260505054841 | 55 | 136 | 0.0 | 0.0 | 0.00 | 0.00 | 0.00 | 73 | 1009.8 |
| 20260505054335 | 56 | 136 | 0.0 | 0.0 | 0.00 | 0.00 | 0.00 | 72 | 1009.8 |
| 20260505054100 | 56 | 136 | 0.0 | 0.0 | 0.00 | 0.00 | 0.00 | 72 | 1009.8 |
| 20260505053323 | 56 | 136 | 0.0 | 0.0 | 0.00 | 0.00 | 0.00 | 71 | 1009.9 |
| 20260505052817 | 56 | 136 | 0.0 | 0.0 | 0.00 | 0.00 | 0.00 | 70 | 1009.9 |
| 20260505052312 | 56 | 136 | 0.0 | 0.0 | 0.00 | 0.00 | 0.00 | 70 | 1010.0 |
| 20260505051806 | 56 | 136 | 0.0 | 0.0 | 0.00 | 0.00 | 0.00 | 70 | 1010.0 |
| 20260505051532 | 56 | 136 | 0.0 | 0.0 | 0.00 | 0.00 | 0.00 | 70 | 1010.0 |
| 20260505050754 | 56 | 136 | 0.0 | 0.0 | 0.00 | 0.00 | 0.00 | 70 | 1009.9 |
| 20260505050248 | 56 | 136 | 0.0 | 0.0 | 0.00 | 0.00 | 0.00 | 69 | 1010.0 |
| 20260505041654 | 57 | 172 | 0.0 | 1.0 | 0.00 | 0.00 | 0.00 | 67 | 1009.9 |
| 20260505041152 | 57 | 144 | 0.0 | 1.0 | 0.00 | 0.00 | 0.00 | 67 | 1010.0 |
| 20260505040653 | 58 | 136 | 0.0 | 0.0 | 0.00 | 0.00 | 0.00 | 66 | 1010.1 |
| 20260505040152 | 58 | 129 | 0.0 | 1.0 | 0.00 | 0.00 | 0.00 | 65 | 1009.9 |
| 20260505035651 | 58 | 154 | 0.0 | 1.0 | 0.00 | 0.00 | 0.00 | 65 | 1010.0 |
| 20260505035422 | 58 | 154 | 0.0 | 1.0 | 0.00 | 0.00 | 0.00 | 64 | 1010.0 |
| 20260505034651 | 58 | 133 | 0.0 | 1.0 | 0.00 | 0.00 | 0.00 | 64 | 1010.1 |
| 20260505034151 | 58 | 134 | 0.0 | 2.0 | 0.00 | 0.00 | 0.00 | 64 | 1010.1 |
| 20260505033649 | 58 | 146 | 0.0 | 2.0 | 0.00 | 0.00 | 0.00 | 63 | 1010.1 |
| 20260505033147 | 58 | 138 | 0.0 | 0.0 | 0.00 | 0.00 | 0.00 | 62 | 1010.1 |
| 20260505032645 | 58 | 134 | 0.0 | 2.0 | 0.00 | 0.00 | 0.00 | 62 | 1010.0 |
| 20260505032417 | 59 | 134 | 0.0 | 2.0 | 0.00 | 0.00 | 0.00 | 61 | 1010.0 |
| 20260505031644 | 59 | 143 | 0.0 | 2.0 | 0.00 | 0.00 | 0.00 | 60 | 1010.3 |
| 20260505031145 | 59 | 143 | 0.0 | 2.0 | 0.00 | 0.00 | 0.00 | 60 | 1010.3 |
| 20260505030914 | 59 | 128 | 0.0 | 2.0 | 0.00 | 0.00 | 0.00 | 60 | 1010.3 |
| 20260505030144 | 59 | 171 | 0.0 | 2.0 | 0.00 | 0.00 | 0.00 | 59 | 1010.3 |
| 20260505025640 | 60 | 154 | 0.0 | 1.0 | 0.00 | 0.00 | 0.00 | 58 | 1010.4 |
| 20260505025411 | 60 | 154 | 0.0 | 1.0 | 0.00 | 0.00 | 0.00 | 57 | 1010.4 |
| 20260505024639 | 60 | 154 | 0.0 | 1.0 | 0.00 | 0.00 | 0.00 | 57 | 1010.5 |
| 20260505024139 | 60 | 154 | 0.0 | 3.0 | 0.00 | 0.00 | 0.00 | 56 | 1010.4 |
| 20260505023640 | 60 | 144 | 1.0 | 3.0 | 0.00 | 0.00 | 0.00 | 56 | 1010.5 |
| 20260505023410 | 60 | 146 | 1.0 | 3.0 | 0.00 | 0.00 | 0.00 | 55 | 1010.5 |
| 20260505022639 | 60 | 158 | 1.0 | 3.0 | 0.00 | 0.00 | 0.00 | 54 | 1010.5 |
| 20260505022141 | 61 | 134 | 1.0 | 3.0 | 0.00 | 0.00 | 0.00 | 53 | 1010.5 |
| 20260505021641 | 61 | 138 | 1.0 | 3.0 | 0.00 | 0.00 | 0.00 | 52 | 1010.6 |
| 20260505021140 | 61 | 163 | 1.0 | 4.0 | 0.00 | 0.00 | 0.00 | 51 | 1010.5 |
| 20260505020641 | 61 | 147 | 1.0 | 4.0 | 0.00 | 0.00 | 0.00 | 50 | 1010.7 |
| 20260505020411 | 61 | 117 | 1.0 | 4.0 | 0.00 | 0.00 | 0.00 | 50 | 1010.6 |
| 20260505015640 | 61 | 146 | 1.0 | 2.0 | 0.00 | 0.00 | 0.00 | 49 | 1010.6 |
| 20260505015139 | 62 | 130 | 1.0 | 4.0 | 0.00 | 0.00 | 0.00 | 49 | 1010.5 |
| 20260505014638 | 62 | 146 | 1.0 | 4.0 | 0.00 | 0.00 | 0.00 | 48 | 1010.6 |
| 20260505014138 | 62 | 157 | 1.0 | 2.0 | 0.00 | 0.00 | 0.00 | 48 | 1010.6 |
| 20260505013638 | 62 | 141 | 1.0 | 3.0 | 0.00 | 0.00 | 0.00 | 47 | 1010.6 |
| 20260505013139 | 62 | 150 | 1.0 | 3.0 | 0.00 | 0.00 | 0.00 | 47 | 1010.4 |
| 20260505012904 | 62 | 121 | 0.0 | 2.0 | 0.00 | 0.00 | 0.00 | 47 | 1010.4 |
| 20260505012126 | 62 | 132 | 0.0 | 2.0 | 0.00 | 0.00 | 0.00 | 46 | 1010.4 |
| 20260505011619 | 62 | 132 | 1.0 | 2.0 | 0.00 | 0.00 | 0.00 | 46 | 1010.4 |
| 20260505011115 | 63 | 132 | 1.0 | 2.0 | 0.00 | 0.00 | 0.00 | 45 | 1010.3 |
| 20260505010608 | 63 | 132 | 0.0 | 2.0 | 0.00 | 0.00 | 0.00 | 45 | 1010.0 |
| 20260505010333 | 63 | 150 | 0.0 | 1.0 | 0.00 | 0.00 | 0.00 | 45 | 1010.0 |
| 20260505005827 | 63 | 150 | 0.0 | 1.0 | 0.00 | 0.00 | 0.00 | 45 | 1009.9 |
| 20260505005050 | 63 | 150 | 0.0 | 1.0 | 0.00 | 0.00 | 0.00 | 44 | 1009.9 |
| 20260505004543 | 64 | 150 | 0.0 | 1.0 | 0.00 | 0.00 | 0.00 | 45 | 1009.9 |
| 20260505004038 | 64 | 150 | 0.0 | 1.0 | 0.00 | 0.00 | 0.00 | 44 | 1009.9 |
| 20260505003531 | 64 | 150 | 0.0 | 2.0 | 0.00 | 0.00 | 0.00 | 43 | 1009.8 |
| 20260505003026 | 64 | 150 | 0.0 | 2.0 | 0.00 | 0.00 | 0.00 | 43 | 1009.8 |
| 20260505002520 | 65 | 150 | 0.0 | 2.0 | 0.00 | 0.00 | 0.00 | 43 | 1009.7 |
| 20260505002013 | 65 | 150 | 0.0 | 2.0 | 0.00 | 0.00 | 0.00 | 43 | 1009.7 |
| 20260505001507 | 65 | 150 | 0.0 | 2.0 | 0.00 | 0.00 | 0.00 | 41 | 1009.7 |
| 20260505001002 | 65 | 150 | 1.0 | 3.0 | 0.00 | 0.00 | 0.00 | 42 | 1009.7 |
| 20260505000457 | 65 | 150 | 1.0 | 6.0 | 0.00 | 0.00 | 0.00 | 43 | 1009.5 |
| 20260504235950 | 66 | 165 | 1.0 | 6.0 | 0.00 | 0.00 | 0.00 | 42 | 1009.5 |
| 20260504235443 | 66 | 220 | 0.0 | 3.0 | 0.00 | 0.00 | 0.00 | 41 | 1009.4 |
| 20260504235210 | 66 | 167 | 1.0 | 3.0 | 0.00 | 0.00 | 0.00 | 40 | 1009.5 |
| 20260504234431 | 67 | 187 | 1.0 | 4.0 | 0.00 | 0.00 | 0.00 | 40 | 1009.5 |
| 20260504233926 | 67 | 187 | 1.0 | 4.0 | 0.00 | 0.00 | 0.00 | 40 | 1009.4 |
| 20260504233421 | 67 | 164 | 2.0 | 4.0 | 0.00 | 0.00 | 0.00 | 40 | 1009.2 |
| 20260504233146 | 67 | 175 | 2.0 | 8.0 | 0.00 | 0.00 | 0.00 | 39 | 1009.2 |
| 20260504232409 | 68 | 190 | 2.0 | 8.0 | 0.00 | 0.00 | 0.00 | 38 | 1009.1 |
| 20260504231902 | 68 | 184 | 2.0 | 4.0 | 0.00 | 0.00 | 0.00 | 37 | 1009.1 |
| 20260504231356 | 69 | 201 | 1.0 | 4.0 | 0.00 | 0.00 | 0.00 | 39 | 1009.0 |
| 20260504231351 | 69 | 152 | 2.0 | 7.0 | 0.00 | 0.00 | 0.00 | 38 | 1008.9 |
| 20260504230345 | 69 | 175 | 2.0 | 7.0 | 0.00 | 0.00 | 0.00 | 37 | 1009.0 |
| 20260504225838 | 70 | 194 | 2.0 | 10.0 | 0.00 | 0.00 | 0.00 | 38 | 1009.0 |
| 20260504225332 | 70 | 196 | 2.0 | 10.0 | 0.00 | 0.00 | 0.00 | 36 | 1009.0 |
| 20260504224826 | 70 | 186 | 2.0 | 7.0 | 0.00 | 0.00 | 0.00 | 36 | 1009.0 |
| 20260504224552 | 70 | 177 | 3.0 | 12.0 | 0.00 | 0.00 | 0.00 | 36 | 1009.0 |
| 20260504223814 | 71 | 167 | 3.0 | 12.0 | 0.00 | 0.00 | 0.00 | 35 | 1009.0 |
| 20260504223307 | 71 | 200 | 3.0 | 9.0 | 0.00 | 0.00 | 0.00 | 35 | 1009.1 |
| 20260504222801 | 71 | 213 | 2.0 | 6.0 | 0.00 | 0.00 | 0.00 | 35 | 1009.1 |
| 20260504222256 | 71 | 186 | 2.0 | 11.0 | 0.00 | 0.00 | 0.00 | 36 | 1009.0 |
| 20260504222021 | 71 | 209 | 3.0 | 11.0 | 0.00 | 0.00 | 0.00 | 35 | 1009.0 |
| 20260504221250 | 71 | 168 | 3.0 | 10.0 | 0.00 | 0.00 | 0.00 | 35 | 1008.9 |
| 20260504220749 | 71 | 175 | 3.0 | 10.0 | 0.00 | 0.00 | 0.00 | 35 | 1009.0 |
| 20260504220250 | 71 | 204 | 3.0 | 9.0 | 0.00 | 0.00 | 0.00 | 34 | 1009.0 |
| 20260504215750 | 71 | 150 | 3.0 | 11.0 | 0.00 | 0.00 | 0.00 | 35 | 1009.1 |
| 20260504215250 | 72 | 165 | 4.0 | 11.0 | 0.00 | 0.00 | 0.00 | 35 | 1009.1 |
| 20260504214750 | 72 | 240 | 3.0 | 11.0 | 0.00 | 0.00 | 0.00 | 34 | 1009.2 |
| 20260504214250 | 72 | 213 | 2.0 | 7.0 | 0.00 | 0.00 | 0.00 | 35 | 1009.3 |
| 20260504213756 | 72 | 217 | 2.0 | 8.0 | 0.00 | 0.00 | 0.00 | 35 | 1009.3 |
| 20260504213751 | 72 | 150 | 2.0 | 7.0 | 0.00 | 0.00 | 0.00 | 34 | 1009.3 |
| 20260504212749 | 72 | 187 | 3.0 | 10.0 | 0.00 | 0.00 | 0.00 | 33 | 1009.4 |
| 20260504212250 | 73 | 192 | 3.0 | 10.0 | 0.00 | 0.00 | 0.00 | 33 | 1009.3 |
| 20260504211748 | 73 | 152 | 3.0 | 6.0 | 0.00 | 0.00 | 0.00 | 34 | 1009.3 |
| 20260504211247 | 73 | 162 | 3.0 | 9.0 | 0.00 | 0.00 | 0.00 | 34 | 1009.3 |
| 20260504210747 | 73 | 186 | 3.0 | 9.0 | 0.00 | 0.00 | 0.00 | 33 | 1009.3 |
| 20260504210247 | 73 | 192 | 3.0 | 10.0 | 0.00 | 0.00 | 0.00 | 33 | 1009.5 |
| 20260504205748 | 73 | 198 | 4.0 | 10.0 | 0.00 | 0.00 | 0.00 | 35 | 1009.5 |
| 20260504205248 | 73 | 139 | 3.0 | 8.0 | 0.00 | 0.00 | 0.00 | 34 | 1009.5 |
| 20260504204743 | 73 | 182 | 3.0 | 8.0 | 0.00 | 0.00 | 0.00 | 32 | 1009.4 |
| 20260504204235 | 74 | 180 | 3.0 | 9.0 | 0.00 | 0.00 | 0.00 | 33 | 1009.4 |
| 20260504203730 | 74 | 139 | 3.0 | 14.0 | 0.00 | 0.00 | 0.00 | 34 | 1009.5 |
| 20260504203224 | 74 | 227 | 3.0 | 14.0 | 0.00 | 0.00 | 0.00 | 32 | 1009.4 |
| 20260504202719 | 74 | 193 | 4.0 | 16.0 | 0.00 | 0.00 | 0.00 | 34 | 1009.5 |
| 20260504202445 | 74 | 196 | 4.0 | 22.0 | 0.00 | 0.00 | 0.00 | 31 | 1009.6 |
| 20260504201705 | 74 | 215 | 5.0 | 22.0 | 0.00 | 0.00 | 0.00 | 31 | 1009.4 |
| 20260504201201 | 74 | 158 | 3.0 | 16.0 | 0.00 | 0.00 | 0.00 | 31 | 1009.5 |
| 20260504200924 | 74 | 200 | 2.0 | 9.0 | 0.00 | 0.00 | 0.00 | 33 | 1009.5 |
| 20260504200147 | 74 | 179 | 3.0 | 13.0 | 0.00 | 0.00 | 0.00 | 34 | 1009.5 |
| 20260504195640 | 74 | 150 | 4.0 | 13.0 | 0.00 | 0.00 | 0.00 | 32 | 1009.6 |
| 20260504195142 | 74 | 203 | 3.0 | 13.0 | 0.00 | 0.00 | 0.00 | 32 | 1009.5 |
| 20260504194641 | 74 | 188 | 2.0 | 9.0 | 0.00 | 0.00 | 0.00 | 31 | 1009.5 |
| 20260504194138 | 74 | 198 | 3.0 | 12.0 | 0.00 | 0.00 | 0.00 | 32 | 1009.5 |
| 20260504193640 | 74 | 159 | 3.0 | 12.0 | 0.00 | 0.00 | 0.00 | 32 | 1009.6 |
| 20260504193137 | 73 | 124 | 3.0 | 11.0 | 0.00 | 0.00 | 0.00 | 36 | 1009.7 |
| 20260504192908 | 73 | 181 | 4.0 | 11.0 | 0.00 | 0.00 | 0.00 | 31 | 1009.6 |
| 20260504192137 | 73 | 205 | 3.0 | 10.0 | 0.00 | 0.00 | 0.00 | 32 | 1009.7 |
| 20260504191637 | 73 | 246 | 4.0 | 12.0 | 0.00 | 0.00 | 0.00 | 35 | 1009.7 |
| 20260504191137 | 73 | 180 | 5.0 | 15.0 | 0.00 | 0.00 | 0.00 | 32 | 1009.8 |
| 20260504190637 | 73 | 256 | 5.0 | 15.0 | 0.00 | 0.00 | 0.00 | 31 | 1009.7 |
| 20260504190138 | 73 | 226 | 3.0 | 15.0 | 0.00 | 0.00 | 0.00 | 33 | 1009.9 |
| 20260504185633 | 73 | 182 | 3.0 | 7.0 | 0.00 | 0.00 | 0.00 | 32 | 1009.9 |
| 20260504185133 | 73 | 164 | 3.0 | 11.0 | 0.00 | 0.00 | 0.00 | 32 | 1010.0 |
| 20260504184905 | 73 | 194 | 3.0 | 11.0 | 0.00 | 0.00 | 0.00 | 33 | 1010.1 |
| 20260504184750 | 73 | 146 | 4.0 | 12.0 | 0.00 | 0.00 | 0.00 | 30 | 1010.3 |
| 20260504183634 | 73 | 165 | 4.0 | 12.0 | 0.00 | 0.00 | 0.00 | 34 | 1010.5 |
| 20260504183133 | 73 | 216 | 4.0 | 13.0 | 0.00 | 0.00 | 0.00 | 34 | 1010.6 |
| 20260504182632 | 73 | 211 | 4.0 | 13.0 | 0.00 | 0.00 | 0.00 | 33 | 1010.5 |
| 20260504182404 | 73 | 258 | 4.0 | 10.0 | 0.00 | 0.00 | 0.00 | 35 | 1010.7 |
| 20260504181634 | 73 | 228 | 4.0 | 11.0 | 0.00 | 0.00 | 0.00 | 34 | 1010.9 |
| 20260504181406 | 73 | 184 | 4.0 | 11.0 | 0.00 | 0.00 | 0.00 | 32 | 1010.9 |
| 20260504180633 | 73 | 213 | 4.0 | 11.0 | 0.00 | 0.00 | 0.00 | 33 | 1010.9 |
| 20260504180133 | 73 | 193 | 4.0 | 12.0 | 0.00 | 0.00 | 0.00 | 32 | 1010.9 |
| 20260504175632 | 73 | 157 | 4.0 | 12.0 | 0.00 | 0.00 | 0.00 | 34 | 1011.1 |
| 20260504175134 | 73 | 223 | 4.0 | 13.0 | 0.00 | 0.00 | 0.00 | 35 | 1011.3 |
| 20260504174632 | 73 | 225 | 4.0 | 13.0 | 0.00 | 0.00 | 0.00 | 33 | 1011.4 |
| 20260504174132 | 72 | 179 | 4.0 | 13.0 | 0.00 | 0.00 | 0.00 | 34 | 1011.3 |
| 20260504173632 | 72 | 231 | 4.0 | 13.0 | 0.00 | 0.00 | 0.00 | 32 | 1011.4 |
| 20260504173133 | 72 | 157 | 3.0 | 17.0 | 0.00 | 0.00 | 0.00 | 38 | 1011.3 |
| 20260504172633 | 72 | 162 | 3.0 | 17.0 | 0.00 | 0.00 | 0.00 | 32 | 1011.5 |
| 20260504172628 | 72 | 183 | 3.0 | 11.0 | 0.00 | 0.00 | 0.00 | 37 | 1011.5 |
| 20260504171627 | 72 | 249 | 4.0 | 13.0 | 0.00 | 0.00 | 0.00 | 34 | 1011.6 |
| 20260504171127 | 72 | 184 | 3.0 | 13.0 | 0.00 | 0.00 | 0.00 | 35 | 1011.7 |
| 20260504170628 | 72 | 138 | 3.0 | 7.0 | 0.00 | 0.00 | 0.00 | 37 | 1011.8 |
| 20260504170124 | 71 | 171 | 4.0 | 15.0 | 0.00 | 0.00 | 0.00 | 33 | 1011.8 |
| 20260504160120 | 70 | 178 | 3.0 | 10.0 | 0.00 | 0.00 | 0.00 | 38 | 1012.6 |
| 20260504151021 | 65 | 163 | 4.0 | 16.0 | 0.00 | 0.00 | 0.00 | 45 | 1013.1 |
| 20260504150516 | 64 | 202 | 3.0 | 16.0 | 0.00 | 0.00 | 0.00 | 45 | 1012.9 |
| 20260504140925 | 59 | 235 | 3.0 | 11.0 | 0.00 | 0.00 | 0.00 | 56 | 1013.2 |
| 20260504140423 | 58 | 177 | 4.0 | 13.0 | 0.00 | 0.00 | 0.00 | 56 | 1013.3 |
| 20260504130653 | 54 | 224 | 3.0 | 14.0 | 0.00 | 0.00 | 0.00 | 66 | 1013.7 |
| 20260504120109 | 45 | 206 | 0.0 | 5.0 | 0.00 | 0.00 | 0.00 | 89 | 1014.0 |
| 20260504110331 | 39 | 230 | 0.0 | 1.0 | 0.00 | 0.00 | 0.00 | 84 | 1014.3 |
| 20260504100332 | 39 | 230 | 0.0 | 0.0 | 0.00 | 0.00 | 0.00 | 78 | 1014.1 |